TimeCST,TemperatureF,Dew PointF,Humidity,Sea Level PressureIn,VisibilityMPH,Wind Direction,Wind SpeedMPH,Gust SpeedMPH,PrecipitationIn,Events,Conditions,WindDirDegrees,DateUTC
12:53 AM,37.4,33.8,87,30.36,10.0,Calm,Calm,-,N/A,,Clear,0,2012-11-18 06:53:00
1:53 AM,37.0,36.0,96,30.38,10.0,Calm,Calm,-,N/A,,Clear,0,2012-11-18 07:53:00
2:53 AM,36.0,33.1,89,30.38,10.0,Calm,Calm,-,N/A,,Clear,0,2012-11-18 08:53:00
3:53 AM,36.0,33.1,89,30.36,10.0,Calm,Calm,-,N/A,,Clear,0,2012-11-18 09:53:00
4:53 AM,37.0,35.1,93,30.38,8.0,NNW,3.5,-,N/A,,Clear,340,2012-11-18 10:53:00
5:53 AM,35.1,34.0,96,30.38,4.0,Calm,Calm,-,N/A,,Clear,0,2012-11-18 11:53:00
6:53 AM,34.0,32.0,92,30.40,4.0,Calm,Calm,-,N/A,,Clear,0,2012-11-18 12:53:00
7:53 AM,39.9,37.9,93,30.40,7.0,Calm,Calm,-,N/A,,Clear,0,2012-11-18 13:53:00
8:53 AM,50.0,39.0,66,30.40,10.0,East,5.8,-,N/A,,Clear,100,2012-11-18 14:53:00
9:53 AM,57.0,39.0,51,30.41,10.0,ESE,5.8,-,N/A,,Clear,120,2012-11-18 15:53:00
10:53 AM,61.0,39.0,44,30.40,10.0,SE,5.8,-,N/A,,Clear,130,2012-11-18 16:53:00
11:53 AM,64.0,39.0,40,30.37,10.0,ESE,6.9,-,N/A,,Clear,110,2012-11-18 17:53:00
12:53 PM,64.0,36.0,35,30.35,10.0,ESE,3.5,-,N/A,,Clear,120,2012-11-18 18:53:00
1:53 PM,66.0,34.0,30,30.33,10.0,ESE,8.1,-,N/A,,Clear,110,2012-11-18 19:53:00
2:53 PM,66.0,36.0,33,30.32,10.0,East,4.6,-,N/A,,Clear,90,2012-11-18 20:53:00
3:53 PM,64.9,36.0,34,30.31,10.0,ENE,5.8,-,N/A,,Clear,70,2012-11-18 21:53:00
4:53 PM,61.0,36.0,39,30.32,10.0,Calm,Calm,-,N/A,,Clear,0,2012-11-18 22:53:00
5:53 PM,52.0,39.0,61,30.33,10.0,Calm,Calm,-,N/A,,Clear,0,2012-11-18 23:53:00
6:53 PM,50.0,39.0,66,30.34,10.0,Calm,Calm,-,N/A,,Clear,0,2012-11-19 00:53:00
7:53 PM,45.0,37.0,74,30.34,10.0,Calm,Calm,-,N/A,,Clear,0,2012-11-19 01:53:00
8:53 PM,43.0,36.0,76,30.34,10.0,ENE,4.6,-,N/A,,Clear,60,2012-11-19 02:53:00
9:53 PM,46.0,37.9,73,30.34,10.0,ENE,3.5,-,N/A,,Clear,70,2012-11-19 03:53:00
10:53 PM,43.0,37.9,82,30.34,10.0,Calm,Calm,-,N/A,,Clear,0,2012-11-19 04:53:00
11:53 PM,41.0,36.0,82,30.33,10.0,ESE,4.6,-,N/A,,Clear,110,2012-11-19 05:53:00